Location: Oshawa
(43.9000°N, 78.8670°W)
Time: 10:05:30
(UTC-04:00)

Iridium 54 - Visible Passes

Search period start: 28 June 2017 00:00
Search period end: 08 July 2017 00:00
Orbit: 776 x 779 km, 86.4° (Epoch: 27 June)

Date Brightness Start Highest point End Pass type
(mag) Time Alt. Az. Time Alt. Az. Time Alt. Az.
29 Jun 7.8 04:56:45 10° SE 05:01:02 27° E 05:05:20 10° NNE visible
30 Jun 8.3 04:24:57 10° ESE 04:27:50 15° ENE 04:30:44 10° NE visible
02 Jul 7.1 04:56:16 10° SSE 05:01:01 37° E 05:05:48 10° NNE visible
03 Jul 8.0 04:23:54 10° SE 04:27:45 21° E 04:31:36 10° NNE visible
04 Jul 8.4 03:52:46 10° E 03:54:36 12° ENE 03:56:26 10° NE visible
05 Jul 6.4 04:56:00 10° SSE 05:01:03 53° E 05:06:07 10° NNE visible
06 Jul 7.4 04:23:14 10° SE 04:27:42 30° E 04:32:12 10° NNE visible
07 Jul 8.1 03:51:12 10° ESE 03:54:29 17° ENE 03:57:46 10° NE visible
